MON172 LCLK-LLBG

Flight info

Callsign MON172
Flight time 0h 37m
Altitude 29000
Route EMEDA DCT TUZIB L189 ZUKKO
Aircraft A321/M-SDE3FGHIRWY/LB1

Departure

Time 2026-05-08 03:13
Airport Larnaca International Airport (LCLK)

Arrival

Time 2026-05-08 03:51
Airport Ben Gurion International Airport (LLBG)
Time Latitude Longitude Altitude Speed Heading
2026-05-08 02:46 34.86948 33.61142 21 ft 0 kts 230°
2026-05-08 02:54 34.86964 33.61164 24 ft 4 kts 230°
2026-05-08 02:54 34.86981 33.61189 22 ft 4 kts 227°
2026-05-08 02:55 34.86995 33.61206 23 ft 2 kts 214°
2026-05-08 02:55 34.87016 33.61212 25 ft 2 kts 142°
2026-05-08 02:55 34.87024 33.61204 22 ft 2 kts 136°
2026-05-08 02:56 34.87030 33.61197 20 ft 0 kts 134°
2026-05-08 02:56 34.87026 33.61202 21 ft 0 kts 134°
2026-05-08 03:06 34.87025 33.61204 21 ft 1 kts 134°
2026-05-08 03:06 34.87012 33.61220 23 ft 4 kts 134°
2026-05-08 03:07 34.86990 33.61246 20 ft 5 kts 136°
2026-05-08 03:07 34.86960 33.61282 20 ft 7 kts 135°
2026-05-08 03:07 34.86923 33.61327 20 ft 8 kts 135°
2026-05-08 03:07 34.86884 33.61387 20 ft 10 kts 110°
2026-05-08 03:08 34.86910 33.61463 21 ft 11 kts 48°
2026-05-08 03:08 34.86967 33.61533 20 ft 12 kts 45°
2026-05-08 03:08 34.87032 33.61611 21 ft 14 kts 45°
2026-05-08 03:08 34.87102 33.61699 21 ft 15 kts 45°
2026-05-08 03:09 34.87180 33.61794 21 ft 16 kts 45°
2026-05-08 03:09 34.87262 33.61898 21 ft 18 kts 46°
2026-05-08 03:09 34.87351 33.62008 22 ft 19 kts 43°
2026-05-08 03:09 34.87449 33.62122 21 ft 20 kts 44°
2026-05-08 03:10 34.87549 33.62246 20 ft 21 kts 47°
2026-05-08 03:10 34.87656 33.62377 22 ft 22 kts 45°
2026-05-08 03:10 34.87767 33.62514 20 ft 23 kts 45°
2026-05-08 03:10 34.87883 33.62655 20 ft 24 kts 44°
2026-05-08 03:11 34.88004 33.62802 22 ft 25 kts 45°
2026-05-08 03:11 34.88129 33.62955 22 ft 26 kts 45°
2026-05-08 03:11 34.88257 33.63113 20 ft 27 kts 45°
2026-05-08 03:11 34.88344 33.63220 22 ft 13 kts 45°
2026-05-08 03:12 34.88412 33.63302 20 ft 15 kts 44°
2026-05-08 03:12 34.88422 33.63408 22 ft 14 kts 129°
2026-05-08 03:12 34.88349 33.63495 22 ft 15 kts 140°
2026-05-08 03:12 34.88254 33.63470 22 ft 17 kts 225°
2026-05-08 03:13 34.88128 33.63313 20 ft 57 kts 225°
2026-05-08 03:13 34.87629 33.62704 22 ft 142 kts 225°
2026-05-08 03:13 34.86822 33.61736 499 ft 175 kts 225°
2026-05-08 03:13 34.85907 33.60631 1372 ft 188 kts 227°
2026-05-08 03:14 34.84988 33.59507 2382 ft 186 kts 226°
2026-05-08 03:14 34.84037 33.58336 2821 ft 206 kts 226°
2026-05-08 03:14 34.82970 33.57021 3162 ft 230 kts 226°
2026-05-08 03:14 34.81675 33.55724 3528 ft 254 kts 204°
2026-05-08 03:15 34.79887 33.55419 3943 ft 269 kts 166°
2026-05-08 03:15 34.78233 33.56391 4639 ft 271 kts 139°
2026-05-08 03:15 34.76857 33.57960 5458 ft 272 kts 130°
2026-05-08 03:15 34.75579 33.59667 6287 ft 274 kts 129°
2026-05-08 03:16 34.74273 33.61377 7059 ft 278 kts 131°
2026-05-08 03:16 34.72892 33.63057 7791 ft 283 kts 134°
2026-05-08 03:16 34.71435 33.64705 8512 ft 289 kts 136°
2026-05-08 03:16 34.69734 33.66520 9339 ft 294 kts 137°
2026-05-08 03:17 34.68342 33.67954 9969 ft 299 kts 139°
2026-05-08 03:17 34.66694 33.69625 10414 ft 315 kts 139°
2026-05-08 03:17 34.64947 33.71386 10587 ft 338 kts 139°
2026-05-08 03:17 34.63073 33.73200 11031 ft 350 kts 145°
2026-05-08 03:18 34.60923 33.74628 11665 ft 355 kts 157°
2026-05-08 03:18 34.58593 33.75674 12336 ft 359 kts 160°
2026-05-08 03:18 34.56232 33.76718 13030 ft 363 kts 160°
2026-05-08 03:18 34.53883 33.77767 13693 ft 366 kts 160°
2026-05-08 03:19 34.51477 33.78844 14300 ft 371 kts 160°
2026-05-08 03:19 34.49035 33.79892 14883 ft 374 kts 165°
2026-05-08 03:19 34.46435 33.80484 15478 ft 377 kts 176°
2026-05-08 03:19 34.43840 33.80681 16067 ft 380 kts 178°
2026-05-08 03:20 34.41186 33.80876 16659 ft 384 kts 178°
2026-05-08 03:20 34.38502 33.81079 17260 ft 388 kts 178°
2026-05-08 03:20 34.35789 33.81287 17834 ft 393 kts 178°
2026-05-08 03:20 34.33050 33.81498 18410 ft 396 kts 178°
2026-05-08 03:21 34.30282 33.81713 18929 ft 400 kts 178°
2026-05-08 03:21 34.27501 33.81932 19482 ft 402 kts 178°
2026-05-08 03:21 34.24698 33.82152 20052 ft 404 kts 178°
2026-05-08 03:21 34.21888 33.82372 20631 ft 406 kts 178°
2026-05-08 03:22 34.19066 33.82593 21203 ft 408 kts 178°
2026-05-08 03:22 34.16229 33.82815 21773 ft 410 kts 178°
2026-05-08 03:22 34.13378 33.83033 22356 ft 411 kts 179°
2026-05-08 03:22 34.10514 33.83254 22919 ft 413 kts 179°
2026-05-08 03:23 34.07636 33.83474 23464 ft 415 kts 179°
2026-05-08 03:23 34.04742 33.83692 23943 ft 417 kts 179°
2026-05-08 03:23 34.01838 33.83912 24377 ft 419 kts 179°
2026-05-08 03:23 33.98920 33.84136 24797 ft 422 kts 179°
2026-05-08 03:24 33.95981 33.84362 25214 ft 424 kts 179°
2026-05-08 03:24 33.93032 33.84585 25623 ft 426 kts 179°
2026-05-08 03:24 33.90061 33.84807 26026 ft 428 kts 179°
2026-05-08 03:24 33.87081 33.85029 26421 ft 430 kts 179°
2026-05-08 03:25 33.84043 33.85256 26817 ft 433 kts 179°
2026-05-08 03:25 33.81033 33.85482 27063 ft 435 kts 179°
2026-05-08 03:25 33.78016 33.85714 27109 ft 434 kts 179°
2026-05-08 03:25 33.74999 33.85953 27114 ft 434 kts 179°
2026-05-08 03:26 33.71987 33.86195 27103 ft 434 kts 179°
2026-05-08 03:26 33.69017 33.86432 27101 ft 434 kts 179°
2026-05-08 03:26 33.65965 33.86672 27102 ft 433 kts 179°
2026-05-08 03:26 33.62953 33.86909 27106 ft 433 kts 179°
2026-05-08 03:27 33.59945 33.87148 27102 ft 433 kts 179°
2026-05-08 03:27 33.56975 33.87382 27104 ft 433 kts 179°
2026-05-08 03:27 33.53947 33.87618 27011 ft 425 kts 179°
2026-05-08 03:27 33.51066 33.87843 26756 ft 415 kts 179°
2026-05-08 03:28 33.48217 33.88066 26511 ft 406 kts 179°
2026-05-08 03:28 33.45423 33.88285 26262 ft 399 kts 179°
2026-05-08 03:28 33.42680 33.88497 26009 ft 392 kts 179°
2026-05-08 03:28 33.39983 33.88705 25767 ft 385 kts 179°
2026-05-08 03:29 33.37319 33.88911 25524 ft 382 kts 179°
2026-05-08 03:29 33.34675 33.89116 25283 ft 380 kts 179°
2026-05-08 03:29 33.32036 33.89313 25041 ft 379 kts 179°
2026-05-08 03:29 33.29374 33.89512 24803 ft 378 kts 179°
2026-05-08 03:30 33.24145 33.89912 24337 ft 375 kts 179°
2026-05-08 03:30 33.18961 33.90312 23845 ft 369 kts 179°
2026-05-08 03:31 33.13891 33.90692 22976 ft 365 kts 179°
2026-05-08 03:31 33.08863 33.91059 22132 ft 360 kts 179°
2026-05-08 03:32 33.06371 33.91240 21715 ft 357 kts 179°
2026-05-08 03:32 33.03895 33.91420 21297 ft 355 kts 179°
2026-05-08 03:32 33.01436 33.91600 20859 ft 353 kts 179°
2026-05-08 03:32 32.98987 33.91783 20465 ft 352 kts 179°
2026-05-08 03:33 32.96550 33.91967 20053 ft 350 kts 179°
2026-05-08 03:33 32.94122 33.92144 19639 ft 349 kts 179°
2026-05-08 03:33 32.91697 33.92319 19226 ft 349 kts 178°
2026-05-08 03:33 32.89278 33.92497 18813 ft 348 kts 178°
2026-05-08 03:34 32.86859 33.92675 18407 ft 348 kts 178°
2026-05-08 03:34 32.84445 33.92853 17956 ft 347 kts 178°
2026-05-08 03:34 32.82042 33.93030 17535 ft 345 kts 178°
2026-05-08 03:34 32.79649 33.93210 17125 ft 343 kts 178°
2026-05-08 03:35 32.77271 33.93388 16718 ft 342 kts 178°
2026-05-08 03:35 32.74903 33.93563 16306 ft 341 kts 178°
2026-05-08 03:35 32.72532 33.93735 15837 ft 341 kts 178°
2026-05-08 03:36 32.67934 33.94063 15046 ft 339 kts 178°
2026-05-08 03:36 32.65583 33.94229 14642 ft 338 kts 178°
2026-05-08 03:36 32.63236 33.94396 14238 ft 337 kts 178°
2026-05-08 03:36 32.60898 33.94567 13830 ft 336 kts 178°
2026-05-08 03:37 32.58568 33.94779 13406 ft 335 kts 172°
2026-05-08 03:37 32.56347 33.95585 13004 ft 335 kts 154°
2026-05-08 03:37 32.54441 33.97112 12763 ft 328 kts 137°
2026-05-08 03:37 32.52859 33.99053 12530 ft 327 kts 133°
2026-05-08 03:38 32.51304 34.01003 12305 ft 325 kts 133°
2026-05-08 03:38 32.49753 34.02943 12074 ft 323 kts 133°
2026-05-08 03:38 32.48207 34.04870 11833 ft 322 kts 134°
2026-05-08 03:38 32.46667 34.06784 11593 ft 320 kts 134°
2026-05-08 03:39 32.45136 34.08689 11380 ft 319 kts 134°
2026-05-08 03:39 32.43614 34.10584 11147 ft 317 kts 134°
2026-05-08 03:39 32.42226 34.12600 10912 ft 316 kts 124°
2026-05-08 03:39 32.41004 34.14751 10663 ft 314 kts 124°
2026-05-08 03:40 32.39790 34.16882 10416 ft 311 kts 124°
2026-05-08 03:40 32.38583 34.18996 10168 ft 308 kts 125°
2026-05-08 03:40 32.37390 34.21078 9875 ft 304 kts 125°
2026-05-08 03:40 32.36215 34.23122 9658 ft 298 kts 125°
2026-05-08 03:41 32.35052 34.25146 9430 ft 297 kts 125°
2026-05-08 03:41 32.33896 34.27162 9181 ft 296 kts 125°
2026-05-08 03:41 32.32745 34.29170 8967 ft 294 kts 125°
2026-05-08 03:41 32.31598 34.31169 8727 ft 293 kts 125°
2026-05-08 03:42 32.30457 34.33156 8495 ft 291 kts 125°
2026-05-08 03:42 32.29322 34.35130 8267 ft 290 kts 125°
2026-05-08 03:42 32.28574 34.36431 8108 ft 289 kts 125°
2026-05-08 03:42 32.27448 34.38386 7885 ft 287 kts 125°
2026-05-08 03:43 32.26325 34.40332 7656 ft 286 kts 125°
2026-05-08 03:43 32.25521 34.41725 7498 ft 285 kts 125°
2026-05-08 03:43 32.24407 34.43649 7269 ft 283 kts 125°
2026-05-08 03:43 32.23300 34.45563 7041 ft 281 kts 125°
2026-05-08 03:44 32.22199 34.47467 6745 ft 280 kts 125°
2026-05-08 03:44 32.21103 34.49357 6431 ft 278 kts 125°
2026-05-08 03:44 32.20015 34.51229 6127 ft 275 kts 124°
2026-05-08 03:44 32.18932 34.53089 5827 ft 274 kts 124°
2026-05-08 03:45 32.17855 34.54939 5536 ft 272 kts 124°
2026-05-08 03:45 32.16789 34.56770 5238 ft 269 kts 123°
2026-05-08 03:45 32.15767 34.58603 4944 ft 266 kts 120°
2026-05-08 03:45 32.14854 34.60478 4649 ft 262 kts 115°
2026-05-08 03:46 32.14000 34.62365 4354 ft 259 kts 118°
2026-05-08 03:46 32.13085 34.64181 4087 ft 256 kts 120°
2026-05-08 03:46 32.12161 34.65956 3813 ft 252 kts 120°
2026-05-08 03:46 32.11253 34.67707 3542 ft 249 kts 120°
2026-05-08 03:47 32.10375 34.69404 3454 ft 235 kts 120°
2026-05-08 03:47 32.09532 34.71033 3138 ft 231 kts 119°
2026-05-08 03:47 32.08705 34.72632 2838 ft 226 kts 120°
2026-05-08 03:47 32.07893 34.74201 2533 ft 222 kts 119°
2026-05-08 03:48 32.07093 34.75744 2246 ft 218 kts 119°
2026-05-08 03:48 32.06314 34.77247 1970 ft 213 kts 119°
2026-05-08 03:48 32.05557 34.78708 1696 ft 202 kts 119°
2026-05-08 03:48 32.04855 34.80060 1421 ft 186 kts 119°
2026-05-08 03:49 32.04201 34.81321 1189 ft 174 kts 120°
2026-05-08 03:49 32.03596 34.82487 972 ft 159 kts 120°
2026-05-08 03:49 32.03046 34.83547 754 ft 146 kts 121°
2026-05-08 03:49 32.02526 34.84550 571 ft 141 kts 121°
2026-05-08 03:50 32.02020 34.85525 381 ft 138 kts 121°
2026-05-08 03:50 32.01521 34.86484 207 ft 137 kts 121°
2026-05-08 03:50 32.01047 34.87397 119 ft 109 kts 121°
2026-05-08 03:50 32.00790 34.87895 119 ft 53 kts 121°
2026-05-08 03:51 32.00620 34.88223 120 ft 42 kts 121°
2026-05-08 03:51 32.00522 34.88415 121 ft 17 kts 121°
2026-05-08 03:51 32.00445 34.88533 118 ft 19 kts 137°
2026-05-08 03:51 32.00336 34.88629 119 ft 20 kts 148°
2026-05-08 03:52 32.00213 34.88654 121 ft 9 kts 220°
2026-05-08 03:52 32.00209 34.88589 117 ft 9 kts 290°
2026-05-08 03:52 32.00244 34.88519 117 ft 11 kts 302°
2026-05-08 03:52 32.00287 34.88439 118 ft 12 kts 302°
2026-05-08 03:53 32.00294 34.88426 118 ft 13 kts 302°
2026-05-08 03:55 32.00327 34.88364 117 ft 12 kts 302°
2026-05-08 03:55 32.00338 34.88343 118 ft 13 kts 302°
2026-05-08 03:58 32.00346 34.88327 118 ft 13 kts 302°
2026-05-08 03:59 32.00392 34.88242 116 ft 12 kts 302°
2026-05-08 03:59 32.00442 34.88150 117 ft 14 kts 302°
2026-05-08 03:59 32.00472 34.88094 117 ft 14 kts 302°
2026-05-08 04:02 32.00522 34.88001 119 ft 14 kts 302°
2026-05-08 04:02 32.00535 34.87898 117 ft 12 kts 242°
2026-05-08 04:02 32.00478 34.87838 118 ft 10 kts 212°
2026-05-08 04:02 32.00427 34.87801 119 ft 7 kts 211°
2026-05-08 04:03 32.00400 34.87761 117 ft 6 kts 241°
2026-05-08 04:03 32.00370 34.87637 120 ft 10 kts 272°
2026-05-08 04:03 32.00371 34.87632 120 ft 0 kts 272°